[[[{"header":{"parameterUnit":"kt","parameterCategory":2,"dx":1,"dy":1,"la1":30.253999710083008,"la2":30.299108505249023,"lo1":-89.0895004272461,"lo2":-89.04439544677734,"nx":28,"ny":28,"refTime":"2022-09-30T21:00:00:Z","depth":0,"parameterNumber":1,"parameterNumberName":"U-component_of_WINDS"},"data":[0.8044,0.8074,0.8091,0.8134,0.8157,0.819,0.8208,0.8233,0.8258,0.8301,0.833,0.8352,0.8385,0.8425,0.8458,0.8468,0.8481,0.8479,0.8491,0.848,0.848,0.848,0.8473,0.8482,0.8482,0.85,0.85,0.85,0.8037,0.806,0.8087,0.8125,0.8149,0.8161,0.8194,0.8214,0.8243,0.8274,0.8303,0.8343,0.8377,0.8412,0.8449,0.8466,0.8475,0.8475,0.8474,0.8479,0.8468,0.8461,0.8467,0.8467,0.8467,0.8467,0.8467,0.8467,0.803,0.8047,0.8079,0.8109,0.8133,0.8159,0.8179,0.8205,0.8233,0.8271,0.8287,0.8322,0.8357,0.841,0.8433,0.8462,0.8465,0.8472,0.8473,0.8475,0.8474,0.8447,0.8469,0.8469,0.847,0.847,0.847,0,0.8029,0.8042,0.8069,0.8101,0.8124,0.8151,0.8179,0.8192,0.8226,0.8248,0.8282,0.8305,0.835,0.8385,0.8424,0.8446,0.8462,0.8466,0.8471,0.8463,0.8452,0.8459,0.8441,0.8465,0.8465,0.8465,0.8465,0.8465,0.8023,0.8041,0.8083,0.8099,0.8118,0.8145,0.8165,0.8194,0.8214,0.8253,0.8268,0.8303,0.8332,0.8384,0.8416,0.845,0.8459,0.8466,0.8464,0.8456,0.846,0.8458,0.8461,0.8465,0.8465,0.8465,0.8465,0,0.8019,0.8046,0.8078,0.8118,0.8129,0.8146,0.8181,0.82,0.8223,0.8252,0.8261,0.8297,0.833,0.836,0.8404,0.8419,0.8453,0.8459,0.8441,0.8444,0.8454,0.8453,0.848,0.8486,0.8477,0.8477,0.8477,0,0.8024,0.8046,0.8085,0.8102,0.8128,0.8156,0.8181,0.8203,0.8232,0.8255,0.8277,0.8299,0.8333,0.8361,0.8382,0.8415,0.8423,0.8437,0.8442,0.8435,0.8433,0.8446,0.8446,0.8453,0.8453,0.8453,0.8452,0,0.8014,0.806,0.8088,0.8103,0.8147,0.8161,0.818,0.8212,0.8231,0.8261,0.8275,0.8308,0.8326,0.8353,0.838,0.8378,0.842,0.8422,0.8434,0.8433,0.8441,0.8441,0.8457,0.8452,0.8452,0.8452,0.8452,0,0.8022,0.805,0.8086,0.8124,0.8135,0.8154,0.8187,0.821,0.8242,0.8257,0.8281,0.8298,0.8328,0.8328,0.837,0.836,0.8377,0.8393,0.8394,0.8398,0.8398,0.8404,0.8416,0.8419,0.8403,0.8403,0.8403,0,0.8004,0.8047,0.807,0.8105,0.8128,0.815,0.8172,0.82,0.822,0.8245,0.8269,0.8297,0.8303,0.8316,0.8333,0.8359,0.8373,0.8358,0.8396,0.8397,0.8387,0.8399,0.8393,0.841,0.8398,0.8398,0.8399,0,0.7993,0.8044,0.8048,0.8067,0.8105,0.8125,0.815,0.8183,0.8198,0.8226,0.8249,0.8289,0.8296,0.8317,0.8334,0.835,0.8364,0.8355,0.8357,0.8357,0.8397,0.8392,0.8395,0.8373,0.8374,0.8374,0.8395,0,0.8,0.8025,0.8037,0.8075,0.8095,0.8117,0.8146,0.8163,0.8178,0.8198,0.8232,0.8261,0.8296,0.8306,0.832,0.8347,0.8347,0.8354,0.8356,0.8363,0.8371,0.8374,0.8343,0.8343,0.8343,0.8343,0,0,0.7976,0.8011,0.8035,0.8058,0.8076,0.8097,0.8119,0.814,0.818,0.8193,0.8194,0.8254,0.8278,0.8316,0.832,0.8334,0.8342,0.8338,0.836,0.8361,0.8363,0.837,0.8373,0.8344,0.8344,0.8344,0.8344,0,0.7985,0.8006,0.8025,0.8047,0.808,0.81,0.8105,0.8141,0.8155,0.8187,0.8205,0.8228,0.8275,0.8298,0.8316,0.8334,0.8347,0.8342,0.8342,0.8361,0.8362,0.8363,0.8371,0.8373,0.8344,0.8344,0.8344,0,0.7979,0.8004,0.8017,0.8057,0.8078,0.8102,0.8112,0.8136,0.8154,0.8177,0.8208,0.8228,0.8262,0.8293,0.8308,0.8309,0.8349,0.8341,0.8341,0.8343,0.8363,0.8364,0.8366,0.8347,0.8346,0.8346,0,0,0.7982,0.8004,0.804,0.8061,0.8073,0.8103,0.8118,0.8133,0.8161,0.8173,0.8199,0.8227,0.8254,0.8272,0.8299,0.8329,0.8339,0.834,0.834,0.834,0.8342,0.8361,0.8363,0.8346,0.8346,0.8346,0,0,0.7984,0.8026,0.8035,0.8061,0.8087,0.8125,0.8137,0.8149,0.8175,0.8176,0.8204,0.8213,0.8242,0.8261,0.8252,0.8301,0.8303,0.8305,0.8287,0.8287,0.8287,0.8282,0.8266,0,0,0,0,0,0.8006,0.8021,0.8028,0.8037,0.8087,0.812,0.8127,0.815,0.8151,0.816,0.8184,0.8196,0.8263,0.8255,0.8264,0.8274,0.834,0.8341,0.8342,0.8325,0.8325,0.8325,0,0,0,0,0,0,0.801,0.802,0.8028,0.8065,0.8077,0.812,0.8127,0.8133,0.815,0.8152,0.8191,0.8197,0.8218,0.8252,0.826,0.8269,0.8264,0.8341,0.8341,0.8342,0.8325,0.8325,0.8325,0,0,0,0,0,0.8013,0.8021,0.8096,0.8065,0.8075,0.8109,0.8126,0.8132,0.8146,0.8182,0.8188,0.8161,0.8217,0.8225,0.8257,0.8265,0.8259,0.8261,0.8341,0.8342,0.8342,0.8325,0,0,0,0,0,0,0.8015,0.8027,0.8098,0.8102,0.8061,0.8107,0.8115,0.813,0.8175,0.8181,0.8153,0.8154,0.8217,0.8224,0.823,0.8262,0.8254,0.8257,0.8259,0.8342,0.8342,0.8343,0,0,0,0,0,0,0.8023,0.803,0.8101,0.8094,0.8097,0.8105,0.8112,0.8142,0.8175,0.8144,0.8146,0.8153,0.8209,0.8222,0.8227,0.8273,0.8251,0.8254,0.8256,0.8257,0.8342,0.8343,0,0,0,0,0,0,0.8026,0.8033,0.8093,0.8095,0.8098,0.8145,0.8132,0.8183,0.8168,0.8142,0.8167,0.8167,0.8207,0.8212,0.8225,0.8269,0.8272,0.8251,0.8253,0.8254,0.8255,0,0,0,0,0,0,0,0.8029,0.798,0.8075,0.8097,0.8099,0.814,0.8141,0.8142,0.8168,0.8167,0.8167,0.8167,0.8236,0.8239,0.8242,0.8266,0,0,0.8251,0.8252,0,0,0,0,0,0,0,0,0.7978,0.7979,0.8075,0.8075,0.8076,0.814,0.8141,0.8142,0.8167,0.8167,0.8167,0.8167,0.8237,0.8239,0.8241,0,0,0,0,0,0,0,0,0,0,0,0,0,0,0,0.8075,0.8075,0,0.814,0.8141,0.8141,0.8167,0.8167,0.8167,0.8167,0.8237,0.8239,0.8241,0,0,0,0,0,0,0,0,0,0,0,0,0,0,0,0,0,0,0,0,0,0,0,0,0,0,0,0,0,0,0,0,0,0,0,0,0,0,0,0,0,0,0,0,0,0,0,0,0,0,0,0,0,0,0,0,0,0,0,0,0,0,0,0,0,0,0,0,0]}],[{"header":{"parameterUnit":"kt","parameterCategory":2,"dx":1,"dy":1,"la1":30.253999710083008,"la2":30.299108505249023,"lo1":-89.0895004272461,"lo2":-89.04439544677734,"nx":28,"ny":28,"refTime":"2022-09-30T21:00:00:Z","depth":0,"parameterNumber":2,"parameterNumberName":"V-component_of_WINDS"},"data":[-10.0773,-10.0873,-10.0902,-10.1027,-10.1073,-10.1163,-10.1204,-10.1259,-10.1308,-10.1416,-10.1483,-10.1517,-10.1575,-10.1658,-10.1728,-10.1741,-10.1769,-10.1787,-10.1799,-10.1701,-10.1689,-10.1677,-10.1657,-10.1792,-10.1793,-10.1897,-10.1898,-10.1898,-10.0704,-10.0752,-10.0827,-10.0917,-10.0981,-10.0983,-10.1053,-10.1106,-10.1184,-10.1245,-10.1311,-10.1407,-10.1484,-10.1535,-10.1613,-10.1657,-10.166,-10.1676,-10.1673,-10.1682,-10.1579,-10.1557,-10.1673,-10.1673,-10.1673,-10.1673,-10.1673,-10.1673,-10.0587,-10.0645,-10.0717,-10.0797,-10.085,-10.0909,-10.0968,-10.1011,-10.1081,-10.1168,-10.1183,-10.1271,-10.1334,-10.1438,-10.1477,-10.1545,-10.153,-10.1555,-10.1561,-10.1567,-10.1571,-10.1421,-10.1558,-10.1558,-10.1558,-10.1558,-10.1558,0,-10.051,-10.0529,-10.0601,-10.0683,-10.0742,-10.0806,-10.0868,-10.0905,-10.0949,-10.1005,-10.1087,-10.1138,-10.1237,-10.1315,-10.1391,-10.1427,-10.1429,-10.1431,-10.1448,-10.1443,-10.143,-10.144,-10.1271,-10.1426,-10.1425,-10.1424,-10.1424,-10.1423,-10.0394,-10.0457,-10.0543,-10.059,-10.0631,-10.0704,-10.0753,-10.0788,-10.0838,-10.0917,-10.0964,-10.1043,-10.1108,-10.1231,-10.1274,-10.1346,-10.1347,-10.1405,-10.1357,-10.1352,-10.1349,-10.1345,-10.1352,-10.1412,-10.1414,-10.1415,-10.1416,0,-10.0327,-10.037,-10.0475,-10.0552,-10.0573,-10.0637,-10.0701,-10.0758,-10.0791,-10.0873,-10.0894,-10.0944,-10.1021,-10.1055,-10.1148,-10.1163,-10.1267,-10.1265,-10.1247,-10.1248,-10.1304,-10.1299,-10.1476,-10.1501,-10.136,-10.1362,-10.1363,0,-10.0244,-10.0325,-10.0384,-10.0443,-10.0534,-10.0566,-10.0654,-10.069,-10.0745,-10.081,-10.0819,-10.0879,-10.0913,-10.0977,-10.0999,-10.1089,-10.1106,-10.1122,-10.1127,-10.1122,-10.112,-10.1146,-10.114,-10.1134,-10.1133,-10.1132,-10.1131,0,-10.0134,-10.0258,-10.0355,-10.0389,-10.0476,-10.052,-10.0557,-10.0618,-10.0664,-10.0728,-10.0758,-10.0829,-10.0868,-10.0923,-10.095,-10.0918,-10.1061,-10.1021,-10.1077,-10.1077,-10.1106,-10.1104,-10.1254,-10.113,-10.113,-10.1129,-10.1129,0,-10.0073,-10.0142,-10.0273,-10.0347,-10.0377,-10.0439,-10.0514,-10.0574,-10.0636,-10.0655,-10.0705,-10.0714,-10.0794,-10.0753,-10.0864,-10.0814,-10.0851,-10.0874,-10.0879,-10.0887,-10.084,-10.0921,-10.106,-10.1076,-10.0897,-10.0895,-10.0893,0,-9.9937,-10.008,-10.0109,-10.0232,-10.0303,-10.031,-10.0379,-10.0433,-10.0464,-10.0526,-10.0558,-10.0628,-10.0604,-10.063,-10.0681,-10.0715,-10.078,-10.0707,-10.0794,-10.0797,-10.078,-10.0908,-10.0921,-10.1026,-10.0869,-10.0872,-10.0873,0,-9.9836,-9.9942,-9.9961,-10.0002,-10.0081,-10.0138,-10.0216,-10.0293,-10.0334,-10.0392,-10.0458,-10.0554,-10.0541,-10.0583,-10.0596,-10.0647,-10.0737,-10.0624,-10.0626,-10.0644,-10.0858,-10.0871,-10.0889,-10.0734,-10.0737,-10.074,-10.0854,0,-9.9737,-9.9813,-9.9868,-9.9954,-10.0004,-10.0081,-10.0119,-10.0166,-10.0176,-10.0205,-10.03,-10.035,-10.0424,-10.0451,-10.0458,-10.0564,-10.0551,-10.0534,-10.0495,-10.0579,-10.0617,-10.0633,-10.0435,-10.0434,-10.0434,-10.0433,0,0,-9.9596,-9.9705,-9.9731,-9.9809,-9.9853,-9.9857,-9.9936,-9.9978,-10.0062,-10.0091,-10.007,-10.0213,-10.0252,-10.0364,-10.0393,-10.0421,-10.0443,-10.0411,-10.0538,-10.055,-10.0561,-10.0601,-10.0617,-10.0432,-10.0431,-10.0431,-10.0431,0,-9.9568,-9.9614,-9.9693,-9.9739,-9.9807,-9.9835,-9.9854,-9.992,-9.9942,-10.0035,-10.0034,-10.0094,-10.0205,-10.0249,-10.0285,-10.04,-10.0394,-10.0419,-10.0471,-10.0529,-10.0542,-10.0553,-10.0595,-10.061,-10.0429,-10.0429,-10.0429,0,-9.9476,-9.9527,-9.9569,-9.9668,-9.9711,-9.9781,-9.9751,-9.9825,-9.9877,-9.9872,-9.9964,-9.9995,-10.0054,-10.0153,-10.0199,-10.018,-10.0347,-10.0299,-10.0305,-10.031,-10.0368,-10.0383,-10.0396,-10.0218,-10.0217,-10.0216,0,0,-9.9445,-9.9515,-9.9578,-9.9664,-9.9692,-9.9733,-9.9772,-9.9785,-9.9841,-9.9862,-9.9902,-9.9954,-10.0019,-10.006,-10.0122,-10.0226,-10.024,-10.0272,-10.0282,-10.029,-10.0299,-10.0359,-10.0374,-10.0213,-10.0213,-10.0213,0,0,-9.943,-9.9508,-9.9508,-9.9612,-9.9667,-9.9732,-9.9782,-9.9783,-9.9842,-9.9837,-9.9858,-9.9873,-9.9966,-9.9995,-9.9948,-10.0109,-10.0069,-10.0081,-10.0086,-10.0099,-10.0109,-10.01,-9.9921,0,0,0,0,0,-9.9419,-9.9499,-9.9498,-9.9521,-9.9643,-9.9733,-9.9748,-9.977,-9.9743,-9.9783,-9.9816,-9.9807,-9.9975,-9.9934,-9.9955,-10.0006,-10.0171,-10.0179,-10.0186,-10.0217,-10.023,-10.0241,0,0,0,0,0,0,-9.9428,-9.9456,-9.9496,-9.9564,-9.9592,-9.973,-9.969,-9.9698,-9.974,-9.9737,-9.9801,-9.9809,-9.9826,-9.9925,-9.9943,-9.9991,-9.9914,-10.0174,-10.018,-10.0186,-10.0221,-10.0232,-10.0242,0,0,0,0,0,-9.9436,-9.9458,-9.9648,-9.9563,-9.9587,-9.9635,-9.9687,-9.9693,-9.9726,-9.9776,-9.9784,-9.9738,-9.9827,-9.9844,-9.9936,-9.9983,-9.9902,-9.9909,-10.0178,-10.0183,-10.0188,-10.0227,0,0,0,0,0,0,-9.9441,-9.9464,-9.9654,-9.9662,-9.9534,-9.9628,-9.9643,-9.9689,-9.9762,-9.9771,-9.9714,-9.9711,-9.9829,-9.9841,-9.9854,-9.9979,-9.9892,-9.9899,-9.9903,-10.0182,-10.0186,-10.0189,0,0,0,0,0,0,-9.9452,-9.947,-9.9658,-9.9621,-9.9625,-9.9621,-9.9635,-9.9714,-9.9763,-9.9696,-9.9696,-9.9712,-9.9808,-9.984,-9.985,-9.9974,-9.9884,-9.989,-9.9895,-9.9898,-10.0185,-10.0188,0,0,0,0,0,0,-9.946,-9.9476,-9.9619,-9.9622,-9.9625,-9.9716,-9.9691,-9.9814,-9.9735,-9.9692,-9.9728,-9.9725,-9.9807,-9.9817,-9.9847,-9.9966,-9.9972,-9.9884,-9.9889,-9.9892,-9.9894,0,0,0,0,0,0,0,-9.9467,-9.9354,-9.9607,-9.9623,-9.9625,-9.9736,-9.9738,-9.974,-9.9734,-9.9731,-9.9728,-9.9726,-9.9846,-9.9853,-9.9861,-9.9961,0,0,-9.9883,-9.9887,0,0,0,0,0,0,0,0,-9.9348,-9.9352,-9.9607,-9.9609,-9.961,-9.9736,-9.9738,-9.974,-9.9733,-9.9731,-9.9729,-9.9727,-9.9848,-9.9854,-9.986,0,0,0,0,0,0,0,0,0,0,0,0,0,0,0,-9.9607,-9.9608,0,-9.9736,-9.9738,-9.9739,-9.9733,-9.9731,-9.9729,-9.9728,-9.985,-9.9855,-9.9859,0,0,0,0,0,0,0,0,0,0,0,0,0,0,0,0,0,0,0,0,0,0,0,0,0,0,0,0,0,0,0,0,0,0,0,0,0,0,0,0,0,0,0,0,0,0,0,0,0,0,0,0,0,0,0,0,0,0,0,0,0,0,0,0,0,0,0,0,0]}]]]